Tracking 19246 objects as of 20-Aug-2018
HD Live streaming from Space Station
objects crossing your sky now

COSMOS 2253

Track COSMOS 2253 now!
10-day predictions
COSMOS 2253 is classified as:


NORAD ID: 22688
Int'l Code: 1993-038B
Perigee: 1,415.1 km
Apogee: 1,432.5 km
Inclination: 82.6 °
Period: 114.1 minutes
Semi major axis: 7794 km
RCS: 1.0582 m2 (large)
Launch date: June 24, 1993
Source: Commonwealth of Independent States (former USSR) (CIS)
Launch site: PLESETSK MISSILE AND SPACE COMPLEX (PKMTR)
aabbcc
Your satellite tracking list
Your tracking list is empty




NASA's NSSDC Master Catalog

Two Line Element Set (TLE):
1 22688U 93038B   18232.53686412  .00000015  00000-0  23661-4 0  9998
2 22688  82.5846 276.0858 0011160   3.4107 356.7058 12.61518391158433
Source of the keplerian elements: AFSPC